| time (UTC) | temp F | wind direction | speed knots | gust knots | rain 1hr in | rain 24hr in | rain mn in | humidity % | barometer mb |
| 20260508054005 | 71 | 149 | 3.5 | 0.0 | 0.00 | 0.02 | 0.00 | 95 | 1015.7 |
| 20260508053505 | 71 | 181 | 11.3 | 0.0 | 0.00 | 0.02 | 0.00 | 95 | 1015.7 |
| 20260508053004 | 71 | 176 | 7.8 | 0.0 | 0.05 | 0.02 | 0.00 | 95 | 1015.4 |
| 20260508052505 | 71 | 203 | 3.5 | 0.0 | 0.05 | 0.02 | 0.00 | 95 | 1014.4 |
| 20260508052005 | 71 | 106 | 0.0 | 0.0 | 0.00 | 0.01 | 0.00 | 95 | 1013.7 |
| 20260508051712 | 71 | 134 | 3.5 | 0.0 | 0.07 | 0.01 | 0.00 | 95 | 1013.3 |
| 20260508051008 | 71 | 76 | 0.0 | 0.0 | 0.07 | 0.01 | 0.00 | 95 | 1013.3 |
| 20260508050712 | 71 | 58 | 3.5 | 0.0 | 0.00 | 0.00 | 0.00 | 95 | 1013.7 |
| 20260508045712 | 71 | 46 | 3.5 | 0.0 | 0.00 | 0.00 | 0.00 | 95 | 1014.4 |
| 20260508045005 | 71 | 115 | 0.0 | 0.0 | 0.00 | 0.00 | 0.00 | 95 | 1014.0 |
| 20260508044504 | 71 | 76 | 0.0 | 0.0 | 0.00 | 0.00 | 0.00 | 95 | 1014.0 |
| 20260508044005 | 71 | 54 | 0.0 | 0.0 | 0.00 | 0.00 | 0.00 | 94 | 1013.7 |
| 20260508043505 | 71 | 144 | 3.5 | 0.0 | 0.00 | 0.00 | 0.00 | 94 | 1013.7 |
| 20260508043005 | 71 | 99 | 0.0 | 0.0 | 0.00 | 0.00 | 0.00 | 94 | 1014.0 |
| 20260508042505 | 71 | 105 | 3.5 | 0.0 | 0.00 | 0.00 | 0.00 | 94 | 1014.0 |
| 20260508042005 | 71 | 59 | 3.5 | 0.0 | 0.00 | 0.00 | 0.00 | 94 | 1014.0 |
| 20260508041505 | 71 | 49 | 0.0 | 0.0 | 0.00 | 0.00 | 0.00 | 93 | 1014.4 |
| 20260508041005 | 71 | 81 | 0.0 | 0.0 | 0.00 | 0.00 | 0.00 | 93 | 1014.4 |
| 20260508040505 | 71 | 88 | 3.5 | 0.0 | 0.00 | 0.00 | 0.00 | 93 | 1014.4 |
| 20260508040005 | 71 | 109 | 3.5 | 0.0 | 0.00 | 0.00 | 0.00 | 93 | 1014.4 |
| 20260508035505 | 71 | 64 | 0.0 | 0.0 | 0.00 | 0.00 | 0.00 | 93 | 1014.0 |
| 20260508035005 | 71 | 351 | 3.5 | 0.0 | 0.00 | 0.00 | 0.00 | 93 | 1014.4 |
| 20260508034505 | 71 | 323 | 11.3 | 0.0 | 0.00 | 0.00 | 0.00 | 93 | 1014.4 |
| 20260508034005 | 71 | 58 | 20.0 | 0.0 | 0.00 | 0.00 | 0.00 | 92 | 1014.0 |
| 20260508033713 | 71 | 31 | 3.5 | 0.0 | 0.00 | 0.00 | 0.00 | 92 | 1014.4 |
| 20260508033005 | 71 | 39 | 3.5 | 0.0 | 0.00 | 0.00 | 0.00 | 92 | 1014.4 |
| 20260508032505 | 71 | 34 | 3.5 | 0.0 | 0.00 | 0.00 | 0.00 | 92 | 1014.4 |
| 20260508032004 | 71 | 68 | 3.5 | 0.0 | 0.00 | 0.00 | 0.00 | 92 | 1014.4 |
| 20260508031505 | 71 | 70 | 3.5 | 0.0 | 0.00 | 0.00 | 0.00 | 91 | 1014.4 |
| 20260508031005 | 71 | 286 | 7.8 | 0.0 | 0.00 | 0.00 | 0.00 | 91 | 1014.0 |
| 20260508030505 | 71 | 320 | 3.5 | 0.0 | 0.00 | 0.00 | 0.00 | 91 | 1014.0 |
| 20260508030005 | 71 | 113 | 7.8 | 0.0 | 0.00 | 0.00 | 0.00 | 91 | 1014.0 |
| 20260508025505 | 71 | 46 | 3.5 | 0.0 | 0.00 | 0.00 | 0.00 | 91 | 1013.7 |
| 20260508025005 | 71 | 41 | 11.3 | 0.0 | 0.00 | 0.00 | 0.00 | 90 | 1014.0 |
| 20260508024505 | 71 | 302 | 11.3 | 0.0 | 0.00 | 0.00 | 0.00 | 90 | 1014.0 |
| 20260508024005 | 71 | 24 | 7.8 | 0.0 | 0.00 | 0.00 | 0.00 | 90 | 1013.7 |
| 20260508023713 | 71 | 277 | 15.6 | 0.0 | 0.00 | 0.00 | 0.00 | 90 | 1014.0 |
| 20260508023005 | 71 | 28 | 3.5 | 0.0 | 0.00 | 0.00 | 0.00 | 90 | 1014.4 |
| 20260508022505 | 71 | 47 | 11.3 | 0.0 | 0.00 | 0.00 | 0.00 | 89 | 1014.4 |
| 20260508022005 | 71 | 301 | 11.3 | 0.0 | 0.00 | 0.00 | 0.00 | 89 | 1014.0 |
| 20260508021505 | 71 | 6 | 3.5 | 0.0 | 0.00 | 0.00 | 0.00 | 89 | 1014.0 |
| 20260508021005 | 71 | 355 | 11.3 | 0.0 | 0.00 | 0.00 | 0.00 | 89 | 1013.7 |
| 20260508020504 | 71 | 302 | 11.3 | 0.0 | 0.00 | 0.00 | 0.00 | 89 | 1014.0 |
| 20260508020005 | 71 | 54 | 15.6 | 0.0 | 0.00 | 0.00 | 0.00 | 89 | 1014.0 |
| 20260508015505 | 71 | 342 | 11.3 | 0.0 | 0.00 | 0.00 | 0.00 | 89 | 1014.0 |
| 20260508015005 | 71 | 16 | 7.8 | 0.0 | 0.00 | 0.00 | 0.00 | 89 | 1013.7 |
| 20260508014505 | 71 | 247 | 7.8 | 0.0 | 0.00 | 0.00 | 0.00 | 89 | 1013.3 |
| 20260508014005 | 71 | 331 | 15.6 | 0.0 | 0.00 | 0.00 | 0.00 | 89 | 1013.3 |
| 20260508013505 | 71 | 31 | 11.3 | 0.0 | 0.00 | 0.00 | 0.00 | 89 | 1013.7 |
| 20260508013006 | 71 | 44 | 7.8 | 0.0 | 0.00 | 0.00 | 0.00 | 88 | 1013.3 |
| 20260508012505 | 71 | 20 | 15.6 | 0.0 | 0.00 | 0.00 | 0.00 | 89 | 1013.3 |
| 20260508012005 | 71 | 349 | 7.8 | 0.0 | 0.00 | 0.00 | 0.00 | 89 | 1013.7 |
| 20260508011505 | 71 | 80 | 7.8 | 0.0 | 0.00 | 0.00 | 0.00 | 88 | 1013.3 |
| 20260508011211 | 71 | 25 | 11.3 | 0.0 | 0.00 | 0.00 | 0.00 | 88 | 1013.3 |
| 20260508010505 | 71 | 29 | 7.8 | 0.0 | 0.00 | 0.00 | 0.00 | 88 | 1013.3 |
| 20260508010005 | 71 | 15 | 3.5 | 0.0 | 0.00 | 0.00 | 0.00 | 87 | 1013.0 |
| 20260508005505 | 71 | 342 | 11.3 | 0.0 | 0.00 | 0.00 | 0.00 | 87 | 1012.7 |
| 20260508005213 | 72 | 31 | 11.3 | 0.0 | 0.00 | 0.00 | 0.00 | 86 | 1012.7 |
| 20260508004504 | 72 | 1 | 7.8 | 0.0 | 0.00 | 0.00 | 0.00 | 86 | 1013.0 |
| 20260508004005 | 72 | 16 | 3.5 | 0.0 | 0.00 | 0.00 | 0.00 | 86 | 1013.0 |
| 20260508003505 | 72 | 17 | 20.0 | 0.0 | 0.00 | 0.00 | 0.00 | 86 | 1012.7 |
| 20260508003213 | 72 | 67 | 11.3 | 0.0 | 0.00 | 0.00 | 0.00 | 86 | 1013.0 |
| 20260508002505 | 72 | 36 | 7.8 | 0.0 | 0.00 | 0.00 | 0.00 | 86 | 1013.0 |
| 20260508002004 | 72 | 302 | 20.0 | 0.0 | 0.00 | 0.00 | 0.00 | 85 | 1013.3 |
| 20260508001505 | 72 | 29 | 3.5 | 0.0 | 0.00 | 0.00 | 0.00 | 85 | 1013.3 |
| 20260508001005 | 72 | 304 | 27.8 | 0.0 | 0.00 | 0.00 | 0.00 | 85 | 1013.3 |
| 20260508000712 | 73 | 345 | 23.5 | 0.0 | 0.00 | 0.00 | 0.00 | 84 | 1013.0 |
| 20260508000005 | 73 | 343 | 7.8 | 0.0 | 0.00 | 0.00 | 0.00 | 84 | 1012.7 |
| 20260507235505 | 73 | 38 | 20.0 | 0.0 | 0.00 | 0.00 | 0.00 | 84 | 1012.3 |
| 20260507235005 | 73 | 301 | 3.5 | 0.0 | 0.00 | 0.00 | 0.00 | 84 | 1012.7 |
| 20260507234505 | 73 | 63 | 20.0 | 0.0 | 0.00 | 0.00 | 0.00 | 84 | 1012.3 |
| 20260507234005 | 73 | 309 | 20.0 | 0.0 | 0.00 | 0.00 | 0.00 | 84 | 1012.3 |
| 20260507233505 | 73 | 29 | 23.5 | 0.0 | 0.00 | 0.00 | 0.00 | 83 | 1012.3 |
| 20260507233005 | 73 | 333 | 11.3 | 0.0 | 0.00 | 0.00 | 0.00 | 82 | 1012.3 |
| 20260507232711 | 74 | 345 | 20.0 | 0.0 | 0.00 | 0.00 | 0.00 | 82 | 1012.3 |
| 20260507232005 | 74 | 294 | 7.8 | 0.0 | 0.00 | 0.00 | 0.00 | 82 | 1012.0 |
| 20260507231505 | 74 | 27 | 7.8 | 0.0 | 0.00 | 0.00 | 0.00 | 82 | 1012.0 |
| 20260507231212 | 73 | 64 | 3.5 | 0.0 | 0.00 | 0.00 | 0.00 | 82 | 1012.0 |
| 20260507230713 | 74 | 83 | 3.5 | 0.0 | 0.00 | 0.00 | 0.00 | 82 | 1012.3 |
| 20260507230212 | 74 | 80 | 11.3 | 0.0 | 0.00 | 0.00 | 0.00 | 82 | 1012.3 |
| 20260507225505 | 74 | 38 | 15.6 | 0.0 | 0.00 | 0.00 | 0.00 | 82 | 1012.3 |
| 20260507225212 | 74 | 8 | 7.8 | 0.0 | 0.00 | 0.00 | 0.00 | 82 | 1012.3 |
| 20260507224505 | 74 | 87 | 15.6 | 0.0 | 0.00 | 0.00 | 0.00 | 82 | 1012.3 |
| 20260507224005 | 74 | 43 | 7.8 | 0.0 | 0.00 | 0.00 | 0.00 | 81 | 1012.3 |
| 20260507223505 | 74 | 322 | 7.8 | 0.0 | 0.00 | 0.00 | 0.00 | 82 | 1012.7 |
| 20260507223005 | 74 | 40 | 15.6 | 0.0 | 0.00 | 0.00 | 0.00 | 82 | 1012.7 |
| 20260507222505 | 74 | 37 | 3.5 | 0.0 | 0.00 | 0.00 | 0.00 | 82 | 1012.3 |
| 20260507222005 | 74 | 32 | 20.0 | 0.0 | 0.00 | 0.00 | 0.00 | 81 | 1012.7 |
| 20260507221505 | 74 | 329 | 20.0 | 0.0 | 0.00 | 0.00 | 0.00 | 81 | 1012.3 |
| 20260507221005 | 74 | 333 | 7.8 | 0.0 | 0.00 | 0.00 | 0.00 | 81 | 1012.3 |
| 20260507220505 | 74 | 15 | 3.5 | 0.0 | 0.00 | 0.00 | 0.00 | 81 | 1012.3 |
| 20260507220212 | 74 | 359 | 15.6 | 0.0 | 0.00 | 0.00 | 0.00 | 80 | 1012.3 |
| 20260507215505 | 74 | 41 | 15.6 | 0.0 | 0.00 | 0.00 | 0.00 | 81 | 1012.3 |
| 20260507215212 | 74 | 41 | 11.3 | 0.0 | 0.00 | 0.00 | 0.00 | 82 | 1012.7 |
| 20260507214505 | 74 | 151 | 3.5 | 0.0 | 0.00 | 0.00 | 0.00 | 81 | 1012.7 |
| 20260507214005 | 74 | 37 | 20.0 | 0.0 | 0.00 | 0.00 | 0.00 | 81 | 1012.7 |
| 20260507213505 | 74 | 32 | 3.5 | 0.0 | 0.00 | 0.00 | 0.00 | 81 | 1012.7 |
| 20260507213005 | 74 | 18 | 23.5 | 0.0 | 0.00 | 0.00 | 0.00 | 81 | 1012.3 |
| 20260507212504 | 74 | 331 | 15.6 | 0.0 | 0.00 | 0.00 | 0.00 | 80 | 1012.7 |
| 20260507212005 | 74 | 321 | 20.0 | 0.0 | 0.00 | 0.00 | 0.00 | 80 | 1012.7 |
| 20260507211505 | 75 | 340 | 23.5 | 0.0 | 0.00 | 0.00 | 0.00 | 80 | 1012.7 |
| 20260507211005 | 76 | 357 | 11.3 | 0.0 | 0.00 | 0.00 | 0.00 | 77 | 1012.7 |
| 20260507210505 | 76 | 21 | 7.8 | 0.0 | 0.00 | 0.00 | 0.00 | 78 | 1012.7 |
| 20260507210006 | 76 | 137 | 11.3 | 0.0 | 0.00 | 0.00 | 0.00 | 76 | 1012.7 |
| 20260507205505 | 75 | 31 | 3.5 | 0.0 | 0.00 | 0.00 | 0.00 | 78 | 1013.0 |
| 20260507205004 | 75 | 319 | 11.3 | 0.0 | 0.00 | 0.00 | 0.00 | 79 | 1013.0 |
| 20260507204505 | 75 | 53 | 7.8 | 0.0 | 0.00 | 0.00 | 0.00 | 79 | 1013.0 |
| 20260507204005 | 76 | 102 | 15.6 | 0.0 | 0.00 | 0.00 | 0.00 | 78 | 1013.3 |
| 20260507203505 | 76 | 12 | 11.3 | 0.0 | 0.00 | 0.00 | 0.00 | 77 | 1013.3 |
| 20260507203005 | 77 | 72 | 3.5 | 0.0 | 0.00 | 0.00 | 0.00 | 76 | 1013.3 |
| 20260507202505 | 77 | 65 | 7.8 | 0.0 | 0.00 | 0.00 | 0.00 | 76 | 1013.3 |
| 20260507202005 | 76 | 31 | 27.8 | 0.0 | 0.00 | 0.00 | 0.00 | 76 | 1013.3 |
| 20260507201505 | 76 | 78 | 7.8 | 0.0 | 0.00 | 0.00 | 0.00 | 76 | 1013.7 |
| 20260507201213 | 76 | 29 | 15.6 | 0.0 | 0.00 | 0.00 | 0.00 | 77 | 1013.7 |
| 20260507200505 | 76 | 5 | 11.3 | 0.0 | 0.00 | 0.00 | 0.00 | 77 | 1013.7 |
| 20260507200213 | 76 | 1 | 15.6 | 0.0 | 0.00 | 0.00 | 0.00 | 77 | 1013.3 |
| 20260507195505 | 76 | 28 | 23.5 | 0.0 | 0.00 | 0.00 | 0.00 | 77 | 1013.7 |
| 20260507195213 | 77 | 2 | 7.8 | 0.0 | 0.00 | 0.00 | 0.00 | 76 | 1014.0 |
| 20260507194712 | 76 | 93 | 7.8 | 0.0 | 0.00 | 0.00 | 0.00 | 78 | 1014.0 |
| 20260507194005 | 75 | 35 | 11.3 | 0.0 | 0.00 | 0.00 | 0.00 | 78 | 1014.0 |
| 20260507193504 | 75 | 28 | 15.6 | 0.0 | 0.00 | 0.00 | 0.00 | 79 | 1014.0 |
| 20260507193005 | 76 | 341 | 7.8 | 0.0 | 0.00 | 0.00 | 0.00 | 79 | 1014.0 |
| 20260507192505 | 75 | 37 | 11.3 | 0.0 | 0.00 | 0.00 | 0.00 | 79 | 1014.0 |
| 20260507192213 | 75 | 287 | 3.5 | 0.0 | 0.00 | 0.00 | 0.00 | 79 | 1014.4 |
| 20260507191505 | 76 | 325 | 15.6 | 0.0 | 0.00 | 0.00 | 0.00 | 78 | 1014.0 |
| 20260507191213 | 77 | 50 | 7.8 | 0.0 | 0.00 | 0.00 | 0.00 | 77 | 1014.4 |
| 20260507190712 | 77 | 333 | 20.0 | 0.0 | 0.00 | 0.00 | 0.00 | 78 | 1014.0 |
| 20260507190006 | 76 | 13 | 15.6 | 0.0 | 0.00 | 0.00 | 0.00 | 78 | 1014.4 |
| 20260507185505 | 77 | 30 | 15.6 | 0.0 | 0.00 | 0.00 | 0.00 | 77 | 1014.4 |
| 20260507185005 | 76 | 17 | 3.5 | 0.0 | 0.00 | 0.00 | 0.00 | 79 | 1014.4 |
| 20260507184505 | 76 | 233 | 15.6 | 0.0 | 0.00 | 0.00 | 0.00 | 78 | 1014.4 |
| 20260507184005 | 76 | 302 | 11.3 | 0.0 | 0.00 | 0.00 | 0.00 | 79 | 1014.4 |
| 20260507183714 | 75 | 39 | 15.6 | 0.0 | 0.00 | 0.00 | 0.00 | 80 | 1014.4 |
| 20260507183005 | 75 | 15 | 11.3 | 0.0 | 0.00 | 0.00 | 0.00 | 81 | 1014.7 |
| 20260507182505 | 74 | 294 | 7.8 | 0.0 | 0.00 | 0.00 | 0.00 | 82 | 1015.0 |
| 20260507182005 | 74 | 350 | 11.3 | 0.0 | 0.00 | 0.00 | 0.00 | 83 | 1014.7 |
| 20260507181505 | 74 | 4 | 11.3 | 0.0 | 0.00 | 0.00 | 0.00 | 83 | 1015.0 |
| 20260507181005 | 74 | 308 | 7.8 | 0.0 | 0.00 | 0.00 | 0.00 | 83 | 1015.0 |
| 20260507180505 | 74 | 309 | 7.8 | 0.0 | 0.00 | 0.00 | 0.00 | 84 | 1015.0 |
| 20260507180004 | 74 | 341 | 15.6 | 0.0 | 0.00 | 0.00 | 0.00 | 84 | 1015.4 |
| 20260507175505 | 73 | 304 | 20.0 | 0.0 | 0.00 | 0.00 | 0.00 | 85 | 1015.0 |
| 20260507175005 | 73 | 90 | 3.5 | 0.0 | 0.00 | 0.00 | 0.00 | 87 | 1015.0 |
| 20260507174505 | 73 | 37 | 3.5 | 0.0 | 0.00 | 0.00 | 0.00 | 86 | 1015.0 |
| 20260507174005 | 73 | 350 | 11.3 | 0.0 | 0.00 | 0.00 | 0.00 | 86 | 1015.0 |
| 20260507173505 | 73 | 318 | 11.3 | 0.0 | 0.00 | 0.00 | 0.00 | 87 | 1015.0 |
| 20260507173005 | 73 | 35 | 11.3 | 0.0 | 0.00 | 0.00 | 0.00 | 86 | 1015.4 |
| 20260507172505 | 73 | 16 | 3.5 | 0.0 | 0.00 | 0.00 | 0.00 | 86 | 1015.4 |
| 20260507172005 | 73 | 16 | 3.5 | 0.0 | 0.00 | 0.00 | 0.00 | 86 | 1015.0 |
| 20260507171505 | 73 | 314 | 7.8 | 0.0 | 0.00 | 0.00 | 0.00 | 86 | 1015.4 |
| 20260507171005 | 74 | 31 | 7.8 | 0.0 | 0.00 | 0.00 | 0.00 | 86 | 1015.0 |
| 20260507170505 | 74 | 27 | 7.8 | 0.0 | 0.00 | 0.00 | 0.00 | 85 | 1015.0 |
| 20260507170005 | 74 | 40 | 3.5 | 0.0 | 0.00 | 0.00 | 0.00 | 85 | 1015.4 |
| 20260507165505 | 74 | 16 | 11.3 | 0.0 | 0.00 | 0.00 | 0.00 | 85 | 1015.4 |
| 20260507165005 | 74 | 62 | 0.0 | 0.0 | 0.00 | 0.00 | 0.00 | 86 | 1015.0 |
| 20260507164504 | 74 | 11 | 11.3 | 0.0 | 0.00 | 0.00 | 0.00 | 85 | 1015.0 |
| 20260507164005 | 74 | 288 | 7.8 | 0.0 | 0.00 | 0.00 | 0.00 | 85 | 1015.0 |
| 20260507163505 | 74 | 78 | 0.0 | 0.0 | 0.00 | 0.00 | 0.00 | 86 | 1015.0 |
| 20260507163212 | 73 | 32 | 11.3 | 0.0 | 0.00 | 0.00 | 0.00 | 86 | 1015.0 |
| 20260507162505 | 73 | 294 | 7.8 | 0.0 | 0.00 | 0.00 | 0.00 | 86 | 1015.0 |
| 20260507162004 | 73 | 9 | 15.6 | 0.0 | 0.00 | 0.00 | 0.00 | 86 | 1015.4 |
| 20260507161505 | 73 | 66 | 7.8 | 0.0 | 0.00 | 0.00 | 0.00 | 86 | 1015.0 |
| 20260507161212 | 73 | 325 | 7.8 | 0.0 | 0.00 | 0.00 | 0.00 | 87 | 1015.0 |
| 20260507160505 | 72 | 8 | 3.5 | 0.0 | 0.00 | 0.00 | 0.00 | 88 | 1015.0 |
| 20260507160005 | 72 | 25 | 7.8 | 0.0 | 0.00 | 0.00 | 0.00 | 88 | 1015.0 |
| 20260507155713 | 72 | 329 | 15.6 | 0.0 | 0.00 | 0.00 | 0.00 | 88 | 1015.0 |
| 20260507155212 | 72 | 56 | 0.0 | 0.0 | 0.00 | 0.00 | 0.00 | 88 | 1015.0 |
| 20260507154505 | 73 | 26 | 3.5 | 0.0 | 0.00 | 0.00 | 0.00 | 88 | 1014.7 |
| 20260507154006 | 72 | 328 | 15.6 | 0.0 | 0.00 | 0.00 | 0.00 | 88 | 1014.7 |
| 20260507153505 | 72 | 348 | 20.0 | 0.0 | 0.00 | 0.00 | 0.00 | 88 | 1014.7 |
| 20260507153213 | 72 | 337 | 11.3 | 0.0 | 0.00 | 0.00 | 0.00 | 88 | 1015.0 |
| 20260507152504 | 72 | 26 | 11.3 | 0.0 | 0.00 | 0.00 | 0.00 | 88 | 1014.7 |
| 20260507152005 | 72 | 334 | 3.5 | 0.0 | 0.00 | 0.00 | 0.00 | 89 | 1014.7 |
| 20260507151505 | 72 | 114 | 0.0 | 0.0 | 0.00 | 0.00 | 0.00 | 89 | 1014.7 |
| 20260507151005 | 72 | 161 | 3.5 | 0.0 | 0.00 | 0.00 | 0.00 | 89 | 1014.4 |
| 20260507150505 | 72 | 335 | 3.5 | 0.0 | 0.00 | 0.00 | 0.00 | 90 | 1014.7 |
| 20260507150006 | 72 | 307 | 3.5 | 0.0 | 0.00 | 0.00 | 0.00 | 90 | 1014.4 |
| 20260507145505 | 72 | 309 | 11.3 | 0.0 | 0.00 | 0.00 | 0.00 | 90 | 1014.7 |
| 20260507145005 | 73 | 331 | 7.8 | 0.0 | 0.00 | 0.00 | 0.00 | 90 | 1014.4 |
| 20260507144505 | 73 | 346 | 3.5 | 0.0 | 0.00 | 0.00 | 0.00 | 90 | 1014.4 |
| 20260507144005 | 73 | 25 | 20.0 | 0.0 | 0.00 | 0.00 | 0.00 | 90 | 1014.4 |
| 20260507143504 | 73 | 68 | 3.5 | 0.0 | 0.00 | 0.00 | 0.00 | 90 | 1014.4 |
| 20260507143005 | 73 | 314 | 7.8 | 0.0 | 0.00 | 0.00 | 0.00 | 90 | 1014.4 |
| 20260507142505 | 73 | 56 | 7.8 | 0.0 | 0.00 | 0.00 | 0.00 | 90 | 1014.0 |
| 20260507142005 | 73 | 45 | 7.8 | 0.0 | 0.00 | 0.00 | 0.00 | 90 | 1014.0 |
| 20260507141505 | 73 | 5 | 3.5 | 0.0 | 0.00 | 0.00 | 0.00 | 91 | 1014.0 |
| 20260507141007 | 73 | 328 | 3.5 | 0.0 | 0.00 | 0.00 | 0.00 | 91 | 1014.0 |
| 20260507140505 | 73 | 29 | 7.8 | 0.0 | 0.00 | 0.00 | 0.00 | 91 | 1014.0 |
| 20260507140005 | 73 | 349 | 11.3 | 0.0 | 0.00 | 0.00 | 0.00 | 91 | 1013.7 |
| 20260507135505 | 73 | 333 | 23.5 | 0.0 | 0.00 | 0.00 | 0.00 | 90 | 1013.7 |
| 20260507135005 | 73 | 11 | 7.8 | 0.0 | 0.00 | 0.00 | 0.00 | 90 | 1013.7 |
| 20260507134505 | 73 | 73 | 7.8 | 0.0 | 0.00 | 0.00 | 0.00 | 90 | 1013.7 |
| 20260507134005 | 73 | 21 | 11.3 | 0.0 | 0.00 | 0.00 | 0.00 | 90 | 1013.3 |
| 20260507133505 | 73 | 17 | 15.6 | 0.0 | 0.00 | 0.00 | 0.00 | 90 | 1013.3 |
| 20260507133005 | 73 | 21 | 7.8 | 0.0 | 0.00 | 0.00 | 0.00 | 90 | 1013.3 |
| 20260507132505 | 74 | 357 | 20.0 | 0.0 | 0.00 | 0.00 | 0.00 | 90 | 1013.3 |
| 20260507132005 | 74 | 50 | 11.3 | 0.0 | 0.00 | 0.00 | 0.00 | 90 | 1013.0 |
| 20260507131505 | 74 | 32 | 3.5 | 0.0 | 0.00 | 0.00 | 0.00 | 89 | 1013.0 |
| 20260507131213 | 74 | 334 | 7.8 | 0.0 | 0.00 | 0.00 | 0.00 | 89 | 1013.0 |
| 20260507130505 | 74 | 10 | 11.3 | 0.0 | 0.00 | 0.00 | 0.00 | 88 | 1013.0 |